• In Spain
  • List of Countries
  • For 7 days
  • Water Temperature
  • Satellite Maps
  • Weather Map
  • Weather Widgets
  • user-avatar
    Login

    Hourly Weather Mshency

    Today, 25 September, Tuesday

    Time Temperature Precipitation Wind Pressure Humidity
    00:00 +6°C° 0.9 mm 4 mps 732 mmHg 94%
    01:00 +6°C° 0.9 mm 5 mps 732 mmHg 93%
    02:00 +7°C° 0 mm 3 mps 732 mmHg 93%
    03:00 +5°C° 0.4 mm 4 mps 733 mmHg 92%
    04:00 +5°C° 0.4 mm 5 mps 733 mmHg 92%
    05:00 +5°C° 0.4 mm 5 mps 734 mmHg 91%
    06:00 +5°C° 0.1 mm 5 mps 734 mmHg 89%
    07:00 +5°C° 0.1 mm 5 mps 735 mmHg 86%
    08:00 +4°C° 0 mm 6 mps 736 mmHg 83%
    09:00 +5°C° 0 mm 6 mps 736 mmHg 80%
    10:00 +5°C° 0 mm 6 mps 737 mmHg 76%
    11:00 +7°C° 0 mm 6 mps 738 mmHg 72%
    12:00 +7°C° 0.1 mm 6 mps 738 mmHg 70%
    13:00 +8°C° 0.1 mm 6 mps 739 mmHg 67%
    14:00 +8°C° 0.1 mm 6 mps 740 mmHg 65%
    15:00 +7°C° 0.1 mm 6 mps 741 mmHg 67%
    16:00 +7°C° 0.1 mm 5 mps 741 mmHg 70%
    17:00 +6°C° 0.1 mm 5 mps 742 mmHg 72%
    18:00 +5°C° 0 mm 5 mps 743 mmHg 73%
    19:00 +5°C° 0 mm 4 mps 743 mmHg 75%
    20:00 +4°C° 0 mm 4 mps 744 mmHg 76%
    21:00 +3°C° 0 mm 4 mps 745 mmHg 75%
    22:00 +3°C° 0 mm 4 mps 745 mmHg 74%
    23:00 +3°C° 0 mm 3 mps 746 mmHg 73%

    Tomorrow, 26 September, Wednesday

    Time Temperature Precipitation Wind Pressure Humidity
    00:00 +2°C° 0 mm 3 mps 746 mmHg 74%
    01:00 +2°C° 0 mm 3 mps 747 mmHg 74%
    02:00 +1°C° 0 mm 3 mps 747 mmHg 75%
    03:00 +1°C° 0 mm 3 mps 747 mmHg 78%
    04:00 +1°C° 0 mm 3 mps 747 mmHg 81%
    05:00 +1°C° 0 mm 3 mps 748 mmHg 84%
    06:00 +3°C° 0 mm 3 mps 748 mmHg 83%
    07:00 +4°C° 0 mm 4 mps 748 mmHg 81%
    08:00 +5°C° 0 mm 4 mps 748 mmHg 80%
    09:00 +6°C° 0 mm 4 mps 748 mmHg 74%
    10:00 +8°C° 0 mm 5 mps 747 mmHg 68%
    11:00 +9°C° 0 mm 5 mps 747 mmHg 62%
    12:00 +9°C° 0 mm 5 mps 746 mmHg 61%
    13:00 +10°C° 0 mm 5 mps 746 mmHg 60%
    14:00 +10°C° 0 mm 6 mps 745 mmHg 59%
    15:00 +9°C° 0.2 mm 6 mps 744 mmHg 64%
    16:00 +8°C° 0.2 mm 6 mps 743 mmHg 69%
    17:00 +7°C° 0.2 mm 6 mps 742 mmHg 74%
    18:00 +6°C° 1.3 mm 7 mps 740 mmHg 79%
    19:00 +5°C° 1.3 mm 7 mps 739 mmHg 83%
    20:00 +5°C° 1.3 mm 8 mps 737 mmHg 88%
    21:00 +5°C° 1.5 mm 8 mps 736 mmHg 88%
    22:00 +5°C° 1.5 mm 8 mps 735 mmHg 89%
    23:00 +5°C° 1.5 mm 7 mps 733 mmHg 89%

    Day after tomorrow, 27 September, Thursday

    Time Temperature Precipitation Wind Pressure Humidity
    00:00 +6°C° 2 mm 7 mps 733 mmHg 91%
    01:00 +7°C° 2 mm 6 mps 732 mmHg 92%
    02:00 +7°C° 2 mm 5 mps 732 mmHg 93%
    03:00 +7°C° 0.6 mm 5 mps 732 mmHg 91%
    04:00 +6°C° 0.6 mm 5 mps 732 mmHg 89%
    05:00 +6°C° 0.6 mm 4 mps 732 mmHg 87%
    06:00 +6°C° 0 mm 5 mps 733 mmHg 86%
    07:00 +6°C° 0 mm 5 mps 733 mmHg 84%
    08:00 +5°C° 0 mm 6 mps 733 mmHg 82%
    09:00 +5°C° 0.4 mm 6 mps 733 mmHg 80%
    10:00 +7°C° 0.4 mm 6 mps 733 mmHg 77%
    11:00 +6°C° 0.4 mm 7 mps 734 mmHg 75%
    12:00 +6°C° 0.4 mm 7 mps 734 mmHg 74%
    13:00 +6°C° 0.4 mm 7 mps 734 mmHg 74%
    14:00 +6°C° 0.4 mm 7 mps 734 mmHg 73%
    15:00 +7°C° 0.1 mm 6 mps 735 mmHg 74%
    16:00 +7°C° 0.1 mm 6 mps 735 mmHg 75%
    17:00 +6°C° 0.1 mm 5 mps 735 mmHg 76%
    18:00 +6°C° 0 mm 5 mps 736 mmHg 76%
    19:00 +5°C° 0 mm 5 mps 736 mmHg 77%
    20:00 +5°C° 0 mm 4 mps 737 mmHg 77%
    21:00 +5°C° 0 mm 4 mps 737 mmHg 78%
    22:00 +4°C° 0 mm 4 mps 737 mmHg 78%
    23:00 +4°C° 0 mm 4 mps 738 mmHg 79%

    28 September, Friday

    Time Temperature Precipitation Wind Pressure Humidity
    00:00 +4°C° 0 mm 4 mps 738 mmHg 81%
    01:00 +3°C° 0 mm 4 mps 738 mmHg 83%
    02:00 +3°C° 0 mm 3 mps 738 mmHg 85%
    03:00 +3°C° 0.3 mm 3 mps 737 mmHg 87%
    04:00 +3°C° 0.3 mm 3 mps 737 mmHg 89%
    05:00 +4°C° 0.3 mm 2 mps 736 mmHg 91%
    06:00 +4°C° 1.7 mm 2 mps 735 mmHg 92%
    07:00 +4°C° 1.7 mm 2 mps 733 mmHg 93%
    08:00 +4°C° 1.7 mm 2 mps 732 mmHg 93%
    09:00 +3°C° 1.6 mm 3 mps 732 mmHg 93%
    10:00 +3°C° 1.6 mm 3 mps 731 mmHg 92%
    11:00 +4°C° 1.6 mm 3 mps 731 mmHg 91%
    12:00 +4°C° 0.3 mm 3 mps 732 mmHg 89%
    13:00 +4°C° 0.3 mm 4 mps 732 mmHg 87%
    14:00 +4°C° 0.3 mm 4 mps 733 mmHg 85%
    15:00 +4°C° 0.1 mm 4 mps 735 mmHg 85%
    16:00 +4°C° 0.1 mm 3 mps 736 mmHg 84%
    17:00 +3°C° 0.1 mm 3 mps 737 mmHg 84%
    18:00 +2°C° 0 mm 3 mps 738 mmHg 85%
    19:00 +2°C° 0 mm 3 mps 739 mmHg 87%
    20:00 +2°C° 0 mm 2 mps 739 mmHg 89%
    21:00 +2°C° 0 mm 2 mps 740 mmHg 90%
    22:00 +1°C° 0 mm 2 mps 741 mmHg 91%
    23:00 +1°C° 0 mm 2 mps 741 mmHg 91%

    29 September, Saturday

    Time Temperature Precipitation Wind Pressure Humidity
    00:00 +1°C° 0 mm 2 mps 742 mmHg 91%
    01:00 -1°C° 0 mm 2 mps 743 mmHg 90%
    02:00 -1°C° 0 mm 2 mps 743 mmHg 89%
    03:00 -1°C° 0 mm 2 mps 744 mmHg 89%
    04:00 -2°C° 0 mm 2 mps 744 mmHg 89%
    05:00 -2°C° 0 mm 2 mps 744 mmHg 89%
    06:00 -1°C° 0 mm 3 mps 745 mmHg 84%
    07:00 0°C° 0 mm 3 mps 746 mmHg 79%
    08:00 +1°C° 0 mm 3 mps 747 mmHg 74%
    09:00 +2°C° 0 mm 3 mps 747 mmHg 68%
    10:00 +3°C° 0 mm 3 mps 748 mmHg 63%
    11:00 +4°C° 0 mm 3 mps 748 mmHg 58%
    12:00 +4°C° 0 mm 3 mps 749 mmHg 56%
    13:00 +4°C° 0 mm 3 mps 749 mmHg 54%
    14:00 +5°C° 0 mm 3 mps 749 mmHg 53%
    15:00 +4°C° 0 mm 3 mps 749 mmHg 58%
    16:00 +4°C° 0 mm 2 mps 750 mmHg 62%
    17:00 +3°C° 0 mm 2 mps 750 mmHg 67%
    18:00 +2°C° 0 mm 2 mps 750 mmHg 70%
    19:00 +1°C° 0 mm 2 mps 751 mmHg 73%
    20:00 -1°C° 0 mm 2 mps 751 mmHg 76%
    21:00 -1°C° 0 mm 2 mps 751 mmHg 76%
    22:00 -1°C° 0 mm 2 mps 751 mmHg 77%
    23:00 -1°C° 0 mm 2 mps 752 mmHg 77%

    30 September, Sunday

    Time Temperature Precipitation Wind Pressure Humidity
    00:00 -1°C° 0 mm 3 mps 752 mmHg 76%
    01:00 -1°C° 0 mm 3 mps 751 mmHg 74%
    02:00 -1°C° 0 mm 3 mps 751 mmHg 72%
    03:00 -1°C° 0 mm 3 mps 751 mmHg 72%
    04:00 -1°C° 0 mm 4 mps 751 mmHg 72%
    05:00 -1°C° 0 mm 4 mps 751 mmHg 72%
    06:00 0°C° 0 mm 4 mps 750 mmHg 72%
    07:00 +1°C° 0 mm 5 mps 750 mmHg 71%
    08:00 +2°C° 0 mm 5 mps 749 mmHg 71%
    09:00 +3°C° 0 mm 5 mps 749 mmHg 69%
    10:00 +5°C° 0 mm 6 mps 749 mmHg 66%
    11:00 +7°C° 0 mm 6 mps 748 mmHg 63%
    12:00 +7°C° 0 mm 6 mps 748 mmHg 66%
    13:00 +7°C° 0 mm 6 mps 748 mmHg 70%
    14:00 +7°C° 0 mm 5 mps 748 mmHg 73%
    15:00 +7°C° 0 mm 5 mps 748 mmHg 74%
    16:00 +6°C° 0 mm 5 mps 748 mmHg 75%
    17:00 +6°C° 0 mm 4 mps 748 mmHg 77%
    18:00 +6°C° 0 mm 4 mps 747 mmHg 78%
    19:00 +6°C° 0 mm 4 mps 747 mmHg 80%
    20:00 +6°C° 0 mm 4 mps 747 mmHg 81%
    21:00 +6°C° 0 mm 4 mps 747 mmHg 82%
    22:00 +6°C° 0 mm 4 mps 747 mmHg 82%
    23:00 +6°C° 0 mm 4 mps 747 mmHg 83%
    Show more